User: anonymous   Login
Location: Newark
(44.1667°N, 8.2500°E)
Time: 11:19:22
(UTC+00:00)
Language:

A-11 Canister half - Orbit

View from above orbital plane
View from above orbital plane
View from above satellite
View from above satellite

Ground track
Ground track

The orbit data is extracted from the following two-line orbital elements,

1    53U 60009E   19340.75575989 -.00000006 +00000-0 +76589-3 0  9990
2    53 047.2741 136.3122 0097950 227.8210 131.4228 12.17233402644971
Epoch (UTC): 06 December 2019 18:08:17
Eccentricity: 0.0097950
inclination: 47.2741°
perigee height: 1526 km
apogee height: 1683 km
right ascension of ascending node: 136.3122°
argument of perigee: 227.8210°
revolutions per day: 12.17233402
mean anomaly at epoch: 131.4228°
orbit number at epoch: 64497

The dashed part of the orbit path shows where the satellite is in the earth's shadow,  

DLR